Retour au catalogue

COSMOS 1275 DEB

LostPO
NORAD 42138·DEBRIS·🇷🇺 Russia

Lancé Jun 4, 1981 depuis Plesetsk Cosmodrome

Loading…

Prochains Passages (prochaines 24 heures)

TLE

PériméSource: Space-Track

Époque: Dec 18, 2021, 00:20 UTC

1 42138U 81053RA  21352.01388928  .00001136  00000-0  93641-3 0  9994
2 42138  83.1434  84.7373 0103285 293.7342  65.3012 13.85961393943140

Suivez COSMOS 1275 DEB en temps réel avec AllMySat

Download on the App Store